Wind_Speed
40 43 44 44 46 47 49 51 52 51 51 51 51 50 49 49 48 46 45 45 45 44 43 43 43 43 42 42 41 41 41 41 40 41 40 39 38 38 38 37 36 36 35 34
40 41 40 41 44 46 48 50 51 51 50 50 51 51 51 50 49 47 46 45 45 45 44 44 44 43 43 42 42 42 42 42 41 41 41 41 40 39 39 38 38 37 36 36
38 38 38 41 43 44 47 49 49 49 50 50 50 50 51 51 51 49 48 47 45 45 45 44 43 43 43 42 42 42 42 42 42 42 42 42 42 41 40 39 38 38 37 36
35 36 37 39 41 41 43 45 46 47 48 49 50 51 50 50 50 49 48 47 46 45 44 44 44 43 43 43 43 43 43 42 42 42 43 42 42 42 41 41 40 39 38 37
33 34 36 39 39 39 39 41 43 44 46 47 48 49 49 49 49 48 47 46 45 45 44 43 43 43 43 43 43 43 43 43 43 42 42 42 42 42 42 41 41 41 40 40
30 31 34 35 36 37 37 38 40 41 43 47 48 48 49 49 48 47 46 45 45 44 43 43 44 44 44 43 43 43 43 43 42 42 42 41 42 42 42 42 42 42 41 41
28 29 32 33 35 37 37 38 38 40 42 45 46 48 48 47 47 46 44 44 44 45 44 43 43 44 44 44 44 43 43 43 42 43 42 42 42 42 43 43 43 43 42 41
27 28 30 33 34 35 36 37 40 42 44 44 44 47 46 45 45 45 44 44 44 44 44 43 43 43 44 44 44 44 44 43 43 43 43 43 43 42 43 43 43 43 43 43
24 26 28 30 33 33 35 37 38 39 42 42 44 45 45 43 43 43 43 44 44 44 44 44 44 44 44 45 45 45 45 44 44 44 43 43 43 43 43 43 43 43 44 44
22 24 27 28 30 32 34 35 37 38 39 41 41 42 43 41 41 41 41 42 43 43 43 43 43 43 44 44 45 45 45 45 45 45 45 45 44 44 44 43 44 44 44 44
21 22 25 28 30 31 32 35 36 38 38 39 40 40 39 38 39 39 40 41 42 43 43 43 43 43 44 44 45 45 46 45 46 46 46 45 45 44 44 44 44 45 45 44
19 21 23 26 28 29 31 33 35 37 38 38 38 38 37 38 38 39 39 40 41 42 43 43 43 43 44 44 45 46 46 45 45 46 46 46 45 45 45 45 45 45 45 45
17 20 21 24 26 28 30 32 34 35 36 36 37 37 36 37 38 39 40 40 41 41 42 42 42 43 43 44 45 46 46 46 45 45 45 46 45 45 45 45 45 45 45 45
17 19 21 23 25 26 28 31 34 36 36 36 36 36 36 37 37 38 40 41 41 41 41 42 42 43 43 44 45 46 46 46 45 45 45 45 45 45 45 46 46 45 45 45
14 18 19 21 23 24 26 28 31 33 34 35 34 35 36 38 39 40 40 40 41 41 41 41 42 42 43 44 44 45 46 46 46 46 46 46 46 46 46 47 46 45 45 45
13 16 17 18 21 23 24 26 28 30 31 32 33 33 34 36 38 39 39 39 40 40 40 41 41 41 42 43 44 44 45 45 45 45 45 46 46 46 46 46 46 45 45 45
12 14 16 18 19 21 23 24 27 29 30 32 31 31 32 33 34 36 38 39 39 40 40 41 41 41 42 43 43 44 44 45 46 45 45 45 46 46 47 46 46 45 45 45
12 13 14 16 17 20 22 23 25 27 29 30 31 30 31 32 33 34 36 37 38 39 40 41 41 42 42 43 43 44 45 45 45 45 46 45 45 45 46 46 46 46 46 46
13 13 14 15 17 20 20 22 24 25 26 28 29 30 30 31 32 34 35 36 37 38 39 40 40 41 42 43 43 44 44 45 45 45 45 46 45 45 45 45 45 46 46 47
14 14 15 16 17 18 19 20 22 25 26 26 26 27 28 29 30 31 33 34 35 37 38 39 40 40 41 42 43 43 44 44 45 45 45 46 46 46 46 45 45 46 46 46
15 16 16 17 19 19 19 20 22 24 25 26 26 26 27 27 27 28 30 32 34 35 36 37 38 39 40 41 42 43 43 44 45 45 45 45 45 46 45 45 45 46 46 46
15 17 18 19 20 20 20 21 22 22 23 24 25 26 26 26 27 28 28 29 31 32 34 35 36 38 39 40 41 41 41 42 43 44 44 44 44 44 44 44 44 44 45 45
15 17 18 19 20 21 21 22 22 23 23 23 24 26 26 26 27 27 28 29 30 31 32 33 34 35 36 38 39 40 41 41 42 43 43 43 43 43 43 43 43 44 43 43
17 18 19 19 20 20 20 21 22 22 23 23 24 25 26 26 26 27 27 28 29 30 31 32 32 33 34 35 36 37 39 40 41 41 42 42 42 42 42 42 42 42 41 41
18 19 20 20 20 21 21 22 23 24 24 24 24 25 26 26 27 27 28 28 28 28 29 30 31 32 33 34 34 35 36 37 38 38 39 40 40 41 40 40 40 40 39 39
18 19 19 19 20 21 21 22 23 23 24 24 25 26 27 27 27 27 28 28 28 28 28 29 29 30 31 32 32 33 34 34 35 36 36 36 37 37 37 38 38 38 38 38
Wind_Direction
218 218 219 221 222 223 224 223 224 224 225 227 228 228 228 229 230 230 231 232 233 234 235 236 236 237 238 240 241 243 243 244 245 247 247 249 250 251 253 255 257 259 261 262
217 217 219 220 220 221 222 223 223 223 224 227 227 228 228 229 230 231 232 232 233 233 235 236 237 237 238 240 242 243 245 246 246 247 247 248 250 253 254 257 259 260 261 264
218 216 217 219 219 220 221 222 223 224 224 226 227 227 228 229 230 230 231 232 233 235 235 236 237 238 239 240 242 243 245 246 247 248 248 248 250 252 254 256 258 260 261 263
216 215 214 216 217 219 221 221 223 225 226 226 228 230 228 229 230 231 231 233 234 235 236 236 238 239 240 241 242 244 245 246 248 249 249 249 250 251 253 255 257 259 261 262
215 215 215 216 218 220 222 222 224 225 227 228 228 231 229 230 230 231 232 234 235 236 236 236 237 239 240 241 242 243 245 246 247 248 249 249 250 251 253 255 256 258 260 262
215 216 216 216 218 220 221 222 222 225 227 229 228 231 232 231 232 233 233 233 234 235 236 237 237 238 240 241 242 243 245 246 247 248 249 250 251 251 253 254 257 258 260 261
213 215 215 214 216 217 219 221 221 221 225 229 228 231 231 231 232 232 232 233 234 235 236 237 238 239 240 241 242 243 244 246 247 248 249 250 251 252 253 255 257 258 259 261
216 214 214 215 218 220 222 223 222 224 228 230 230 231 230 231 232 233 233 233 234 235 236 237 238 239 240 242 242 243 244 246 247 248 249 250 251 252 254 256 256 257 259 260
218 216 214 215 217 220 223 225 224 227 231 233 233 234 232 232 233 233 234 235 235 235 236 238 239 240 241 242 242 243 244 246 247 248 249 250 250 252 254 255 256 257 259 260
220 220 217 215 216 220 224 226 226 227 231 235 236 236 236 235 235 235 236 237 237 238 239 239 240 241 242 243 243 243 244 245 247 248 249 250 251 253 254 255 255 257 259 261
221 223 218 217 218 219 221 223 227 230 232 237 239 238 236 236 237 236 236 237 238 239 240 241 241 241 242 243 244 244 244 246 247 248 249 251 252 253 254 256 257 258 260 261
225 226 225 222 222 223 224 226 228 231 233 237 240 240 239 238 237 237 237 237 237 239 240 241 242 242 243 243 243 244 244 246 247 248 249 251 252 252 254 255 257 259 260 261
227 227 227 224 223 223 226 229 231 233 236 238 241 241 241 240 239 238 238 238 238 240 241 242 243 243 243 244 244 244 245 246 248 248 249 250 252 253 254 255 257 259 260 262
235 233 233 233 230 228 229 230 232 234 238 241 243 243 241 241 240 239 239 239 239 240 241 242 243 243 243 244 245 245 246 248 248 249 250 252 252 254 255 256 257 258 260 261
234 234 235 236 234 234 235 235 236 237 239 242 243 243 243 243 242 241 240 240 241 241 242 242 243 244 244 245 245 246 246 248 249 250 251 252 253 255 256 256 257 258 260 261
237 238 236 236 234 234 235 236 237 237 239 241 242 242 243 244 243 242 242 242 242 242 242 242 243 244 245 245 246 246 247 248 250 251 252 253 254 255 256 257 258 258 260 262
240 242 241 241 239 236 236 238 240 241 242 242 243 244 243 242 242 241 240 240 241 242 243 243 244 245 245 245 246 247 248 249 250 251 253 253 254 255 256 258 259 259 260 262
249 248 246 245 244 244 242 240 242 244 245 244 245 246 245 244 242 241 241 241 241 243 244 244 245 245 245 246 247 247 248 250 251 252 253 254 255 256 257 258 259 260 261 262
254 253 252 251 251 250 247 246 245 246 247 245 245 246 246 246 245 244 243 243 243 244 244 245 246 247 247 248 248 249 249 250 251 252 253 254 256 257 257 258 259 260 261 262
256 256 257 256 256 255 255 253 252 251 250 246 246 246 246 247 246 244 245 245 246 246 246 247 248 248 249 249 250 251 251 251 251 252 253 254 255 257 258 258 259 261 262 263
262 259 259 259 259 258 258 256 253 253 253 249 248 247 249 250 250 248 247 247 248 248 248 249 249 249 250 250 251 251 252 252 252 252 253 254 255 256 257 258 259 261 262 263
266 263 262 262 260 259 259 256 255 258 257 253 250 249 249 249 251 251 251 251 250 250 251 251 251 251 251 251 251 252 252 252 253 253 254 254 255 256 256 258 259 261 262 262
270 267 266 266 263 261 259 258 256 256 257 255 251 250 250 250 252 252 252 252 251 251 252 252 253 252 252 252 252 252 253 253 254 254 254 254 255 255 257 257 259 260 262 262
272 270 270 267 265 263 262 259 257 257 257 255 254 252 250 250 252 253 252 252 252 253 253 253 253 253 253 253 253 254 254 255 255 256 256 256 255 255 256 257 259 260 261 262
278 275 271 268 264 262 262 261 259 258 258 257 257 255 252 250 251 252 251 251 252 253 253 253 253 254 254 255 255 255 255 255 256 256 256 256 256 256 257 258 259 260 261 262
280 277 275 271 267 264 262 260 259 258 258 258 258 257 254 252 252 253 253 253 253 255 256 255 254 255 254 254 254 254 254 255 255 255 255 256 257 256 257 258 259 260 261 262
Height
5620 5628 5635 5644 5651 5659 5667 5674 5680 5688 5695 5701 5707 5714 5720 5726 5731 5738 5744 5749 5754 5760 5764 5768 5773 5777 5780 5784 5787 5790 5793 5797 5799 5802 5804 5806 5808 5810 5812 5814 5815 5816 5817 5818
5614 5621 5630 5636 5642 5649 5656 5663 5671 5679 5686 5691 5697 5704 5710 5716 5722 5729 5735 5740 5746 5750 5755 5760 5764 5768 5772 5776 5779 5782 5784 5788 5791 5793 5795 5798 5800 5802 5804 5806 5807 5808 5809 5810
5608 5617 5623 5628 5634 5641 5648 5655 5663 5670 5676 5680 5686 5693 5700 5706 5712 5718 5725 5731 5736 5741 5746 5751 5755 5759 5763 5767 5770 5773 5775 5778 5781 5784 5786 5789 5791 5794 5796 5798 5799 5800 5801 5802
5603 5610 5616 5621 5627 5634 5641 5649 5655 5661 5666 5671 5677 5682 5691 5697 5703 5710 5716 5722 5728 5733 5737 5742 5746 5750 5753 5757 5760 5763 5766 5769 5771 5774 5777 5779 5782 5784 5787 5788 5790 5791 5793 5794
5598 5605 5610 5615 5622 5628 5635 5641 5647 5652 5657 5663 5668 5673 5682 5687 5694 5702 5708 5714 5719 5724 5728 5733 5737 5740 5743 5746 5750 5753 5756 5759 5762 5765 5767 5770 5772 5775 5777 5779 5781 5783 5784 5785
5595 5600 5605 5611 5618 5623 5628 5634 5638 5643 5647 5652 5660 5665 5672 5678 5686 5693 5699 5705 5710 5714 5719 5723 5727 5730 5733 5737 5740 5744 5747 5749 5752 5755 5758 5760 5763 5765 5767 5769 5772 5773 5775 5776
5591 5595 5600 5606 5610 5615 5620 5626 5630 5634 5637 5643 5651 5655 5663 5671 5678 5684 5690 5695 5700 5705 5709 5713 5717 5721 5724 5728 5731 5734 5737 5740 5743 5745 5748 5751 5753 5755 5758 5760 5762 5763 5765 5766
5586 5591 5595 5600 5605 5609 5614 5619 5624 5628 5631 5637 5642 5647 5656 5663 5669 5674 5680 5685 5690 5694 5699 5703 5707 5711 5714 5718 5721 5724 5727 5730 5733 5736 5739 5741 5744 5746 5748 5750 5751 5753 5755 5756
5583 5588 5592 5596 5601 5606 5609 5613 5619 5623 5625 5630 5634 5640 5648 5654 5659 5665 5670 5675 5680 5684 5689 5693 5697 5701 5704 5707 5711 5714 5718 5720 5723 5726 5729 5732 5734 5736 5738 5740 5742 5743 5745 5746
5579 5584 5588 5592 5596 5601 5605 5608 5612 5615 5618 5622 5627 5633 5640 5646 5651 5657 5661 5666 5670 5675 5679 5683 5687 5691 5694 5697 5701 5704 5707 5710 5713 5716 5719 5721 5724 5726 5727 5729 5731 5733 5734 5736
5576 5580 5584 5587 5591 5595 5599 5603 5605 5609 5613 5616 5620 5628 5633 5638 5643 5648 5652 5656 5660 5665 5669 5673 5677 5680 5684 5687 5690 5693 5697 5700 5703 5706 5708 5711 5713 5715 5717 5719 5721 5722 5724 5725
5573 5576 5579 5583 5587 5590 5594 5597 5601 5604 5607 5610 5614 5622 5625 5630 5634 5638 5642 5646 5651 5655 5659 5663 5667 5670 5673 5676 5680 5683 5686 5689 5692 5695 5697 5700 5702 5704 5706 5708 5710 5711 5713 5714
5569 5572 5574 5578 5583 5585 5588 5591 5594 5597 5600 5603 5607 5615 5617 5621 5625 5629 5632 5636 5640 5644 5648 5652 5656 5659 5663 5666 5669 5672 5676 5679 5681 5684 5686 5689 5691 5693 5695 5697 5699 5700 5702 5703
5566 5568 5572 5574 5577 5580 5583 5586 5589 5591 5593 5597 5601 5605 5609 5612 5616 5619 5623 5626 5630 5634 5638 5642 5645 5649 5652 5655 5658 5661 5665 5668 5670 5673 5676 5678 5680 5682 5684 5686 5688 5689 5690 5692
5562 5565 5567 5570 5573 5575 5578 5581 5583 5585 5588 5591 5594 5597 5601 5603 5606 5610 5613 5617 5620 5624 5627 5631 5634 5638 5641 5644 5647 5650 5653 5656 5659 5662 5664 5667 5669 5671 5673 5674 5676 5677 5679 5680
5559 5561 5563 5565 5567 5569 5572 5575 5577 5579 5581 5584 5586 5590 5592 5593 5596 5600 5603 5607 5610 5614 5617 5620 5624 5627 5630 5633 5636 5639 5642 5644 5647 5650 5653 5655 5657 5659 5661 5663 5664 5666 5667 5668
5556 5557 5559 5561 5562 5563 5566 5569 5570 5572 5574 5577 5579 5583 5583 5585 5588 5591 5594 5597 5600 5604 5607 5610 5613 5616 5619 5622 5625 5627 5630 5633 5635 5638 5640 5643 5645 5647 5649 5651 5652 5654 5655 5656
5552 5553 5554 5556 5558 5558 5563 5563 5564 5566 5568 5569 5572 5574 5576 5577 5579 5582 5584 5587 5590 5593 5596 5599 5602 5605 5608 5611 5613 5616 5619 5621 5624 5626 5628 5630 5633 5635 5637 5639 5640 5642 5643 5644
5549 5550 5550 5551 5551 5553 5556 5557 5557 5558 5561 5562 5564 5566 5568 5569 5571 5574 5576 5578 5580 5583 5586 5588 5591 5594 5597 5599 5602 5604 5607 5609 5612 5614 5616 5618 5621 5623 5625 5627 5628 5629 5630 5632
5545 5546 5546 5546 5546 5547 5551 5551 5551 5552 5554 5555 5557 5558 5560 5561 5564 5566 5567 5569 5571 5573 5576 5578 5581 5583 5585 5588 5590 5593 5595 5598 5600 5602 5604 5606 5608 5611 5612 5614 5616 5617 5618 5619
5541 5540 5541 5541 5540 5542 5544 5544 5544 5547 5548 5548 5549 5550 5552 5554 5556 5558 5558 5560 5562 5564 5566 5568 5570 5572 5575 5577 5579 5581 5584 5586 5588 5590 5592 5594 5596 5598 5600 5602 5603 5604 5605 5606
5536 5536 5536 5535 5535 5538 5537 5537 5539 5540 5540 5540 5541 5543 5545 5546 5548 5549 5550 5551 5553 5554 5556 5558 5560 5562 5564 5566 5568 5570 5572 5574 5576 5578 5580 5582 5584 5586 5588 5589 5590 5591 5592 5593
5531 5532 5531 5531 5532 5531 5530 5530 5531 5532 5533 5533 5534 5536 5537 5538 5540 5541 5542 5543 5544 5546 5547 5548 5550 5552 5553 5555 5557 5559 5561 5562 5564 5566 5568 5570 5572 5574 5575 5577 5578 5579 5580 5580
5527 5526 5525 5525 5525 5525 5524 5524 5524 5525 5526 5526 5527 5528 5529 5530 5532 5533 5534 5535 5536 5537 5538 5539 5540 5542 5543 5545 5546 5548 5550 5551 5553 5555 5556 5558 5560 5562 5563 5565 5566 5567 5568 5569
5521 5520 5519 5518 5518 5518 5518 5518 5518 5518 5518 5519 5519 5520 5521 5522 5523 5525 5526 5526 5527 5528 5529 5530 5531 5533 5534 5535 5536 5537 5539 5540 5542 5544 5545 5547 5548 5550 5552 5553 5554 5555 5556 5557
5515 5514 5512 5512 5512 5512 5512 5511 5511 5511 5511 5511 5512 5512 5513 5514 5515 5516 5517 5518 5519 5520 5521 5521 5522 5523 5524 5525 5526 5527 5529 5530 5532 5533 5534 5536 5537 5539 5540 5542 5543 5544 5545 5546